Location: Newark
(49.8348°N, 24.0280°E)
Time: 17:51:10
(UTC+00:00)

Transit 2A - Pass Details

Date: 22 January 2020
Orbit: 600 x 959 km, 66.7° (Epoch: 22 February)

Event Time Altitude Azimuth Distance (km) Brightness Sun altitude
Rises 21:18:50 0° 268° (W) 2,857 - -56.2°
Reaches altitude 10° 21:21:46 10° 289° (WNW) 1,947 - -56.4°
Maximum altitude 21:24:39 17° 331° (NNW) 1,546 - -56.7°
Drops below altitude 10° 21:27:34 10° 13° (NNE) 1,976 - -56.9°
Sets 21:30:35 0° 34° (NNE) 2,920 - -57.2°
